Location: *
(44.9308°N, 123.0197°W)
Time: 04:41:11
(UTC+00:00)

Meteor 2-13 Rocket - Pass Details

Date: 09 April 2020
Orbit: 937 x 957 km, 82.5° (Epoch: 24 May)

Event Time Altitude Azimuth Distance (km) Brightness Sun altitude
Rises 12:50:04 0° 188° (S) 3,581 7.2 -8.8°
Reaches altitude 10° 12:52:32 10° 189° (S) 2,641 6.5 -8.4°
Maximum altitude 12:58:35 86° 279° (W) 947 4.5 -7.4°
Drops below altitude 10° 13:04:41 10° 8° (N) 2,665 7.2 -6.4°
Sets 13:07:12 0° 9° (N) 3,616 7.9 -5.9°
